User: anonymous   Login
Location: Oshawa
(43.9000°N, 78.8670°W)
Time: 04:18:43
(UTC-04:00)
Language:

ITAMSAT 1 - Orbit

View from above orbital plane
View from above orbital plane
View from above satellite
View from above satellite

Ground track
Ground track

The orbit data is extracted from the following two-line orbital elements,

1 22826U 93061D   14304.40193082  .00000201  00000-0  94828-4 0  5666
2 22826 098.6725 250.0495 0007951 247.1695 112.8648 14.30077394100380
Epoch (UTC): 31 October 2014 09:38:46
Eccentricity: 0.0007951
inclination: 98.6725°
perigee height: 786 km
apogee height: 797 km
right ascension of ascending node: 250.0495°
argument of perigee: 247.1695°
revolutions per day: 14.30077394
mean anomaly at epoch: 112.8648°
orbit number at epoch: 10038

The dashed part of the orbit path shows where the satellite is in the earth's shadow,  

DLR